Home > Weather > Meiningen > Past weeks

Flag for Germany Weather for the Past 2 Weeks in Meiningen, Thuringia, Germany

Now
57 °F

Scattered clouds.


Feels Like: 53 °F
Forecast: 39 / 63 °F
Wind: 17 mph from Northeast

Location: Erfurt-Bindersleben

Current Time: May 1, 2016 at 2:52:07 PM

Latest Report: May 1, 2016 at 2:20 PM


Visibility: N/A

Pressure: 30.18 "Hg

Humidity: 59%

Dew Point: 43 °F

Location of MeiningenLocation

Historic Weather in Meiningen — Graph

°F

Meiningen Temperature Yesterday

Maximum temperature yesterday: 61 °F (at 5:20 PM)
Minimum temperature yesterday: 39 °F (at 2:50 AM)
Average temperature yesterday: 50 °F

High & Low Weather Summary for the Past Weeks

 TemperatureHumidityPressure
High61 °F (Apr 21, 3:50 PM)100% (Apr 17, 2:50 AM)30.42 "Hg (Apr 17, 2:50 AM)
Low28 °F (Apr 24, 4:50 AM)41% (Apr 18, 5:20 PM)29.47 "Hg (Apr 26, 1:50 AM)
Average43 °F71%29.95 "Hg
* Reported Apr 16 1:20 PM — May 1 1:20 PM, Meiningen, Weather by CustomWeather, © 2016

Note: Actual official high and low records may vary slightly from our data, if they occured in-between our weather recording intervals... More about our weather records

Advertising

Meiningen Weather History for the Previous 24 Hours

Scroll right to see more
 ConditionsComfort  
Time TempWeatherWind HumidityBarometerVisibility
1:20 PM
Sun, May 1
57 °FScattered clouds.15 mph63%30.18 "HgN/A
12:50 PM57 °FPartly sunny.10 mph63%30.18 "HgN/A
12:20 PM54 °FPartly sunny.10 mph67%30.18 "HgN/A
11:50 AM52 °FPartly sunny.9 mph72%30.18 "HgN/A
11:20 AM52 °FPartly sunny.13 mph72%30.15 "HgN/A
10:50 AM50 °FPartly sunny.13 mph71%30.15 "HgN/A
10:20 AM48 °FPartly sunny.13 mph82%30.15 "HgN/A
9:50 AM46 °FPartly sunny.12 mph82%30.15 "HgN/A
8:50 AM45 °FSunny.9 mph87%30.12 "Hg10 mi
8:20 AM43 °FSunny.10 mph93%30.12 "Hg10 mi
7:50 AM43 °FClear.9 mph87%30.12 "Hg6 mi
7:20 AM43 °FClear.7 mph87%30.12 "Hg5 mi
6:20 AM39 °FClear.2 mph100%30.12 "Hg4 mi
5:50 AM39 °FClear.6 mph93%30.09 "Hg4 mi
5:20 AM41 °FClear.7 mph93%30.09 "Hg10 mi
4:20 AM43 °FClear.10 mph87%30.09 "Hg10 mi
3:50 AM43 °FClear.10 mph87%30.09 "Hg10 mi
3:20 AM43 °FClear.9 mph87%30.07 "Hg10 mi
2:50 AM43 °FClear.12 mph87%30.07 "Hg10 mi
2:20 AM43 °FClear.10 mph93%30.07 "Hg10 mi
1:50 AM43 °FClear.9 mph93%30.07 "Hg10 mi
1:20 AM45 °FClear.9 mph87%30.07 "Hg10 mi
12:50 AM45 °FClear.8 mph87%30.07 "Hg10 mi
12:20 AM45 °FPassing clouds.12 mph87%30.07 "HgN/A
11:50 PM
Sat, Apr 30
45 °FClear.9 mph87%30.07 "Hg10 mi
11:20 PM46 °FClear.13 mph82%30.07 "Hg10 mi
10:50 PM48 °FClear.13 mph76%30.07 "Hg10 mi
10:20 PM48 °FClear.13 mph76%30.04 "Hg10 mi
9:50 PM48 °FPartly cloudy.15 mph76%30.04 "HgN/A
9:20 PM50 °FBroken clouds.16 mph71%30.04 "HgN/A
8:50 PM52 °FBroken clouds.13 mph67%30.04 "HgN/A
8:20 PM52 °FPartly sunny.16 mph67%30.01 "HgN/A
7:50 PM55 °FPartly sunny.15 mph59%30.01 "HgN/A
7:20 PM57 °FScattered showers. Scattered clouds.9 mph55%30.01 "HgN/A
6:50 PM57 °FScattered clouds.9 mph55%30.01 "HgN/A
6:20 PM59 °FPartly sunny.10 mph51%30.01 "HgN/A
5:50 PM61 °FScattered clouds.7 mph45%30.01 "HgN/A
5:20 PM61 °FPassing clouds.8 mph45%30.01 "HgN/A
4:50 PM59 °FScattered clouds.6 mph51%30.01 "HgN/A
4:20 PM59 °FPartly sunny.5 mph48%30.01 "HgN/A
3:50 PM59 °FPartly sunny.5 mph48%30.01 "HgN/A
3:20 PM57 °FPartly sunny.8 mph48%30.01 "HgN/A
2:50 PM57 °FBroken clouds.8 mph48%30.01 "HgN/A
2:20 PM59 °FBroken clouds.7 mph45%30.01 "HgN/A
Weather by CustomWeather, © 2016

See weather overviewHow to use our weather pages